DECAYED
Showing default

BLUE GHOST, 62716 (Decayed)

Orbit data source: Space-Track

BLUE GHOST, 62716 was a payload satellite owned by Firefly (US) in HEO that was launched on Wed, 15 Jan 2025 UTC via an FALCON 9 launch vehicle from the Air Force Eastern Test Range (AFETR). Payload-class satellites include a variety of spacecraft equipped with specific instruments for various scientific and technological missions. These include communications satellites like Starlink; space stations such as the ISS; scientific satellites like the Hubble; Earth observation satellites from companies like Planet Labs, Umbra, and HawkEye 360; GPS; miniature CubeSats for education and research; and military/defense satellites.

Loading next visibility...
Identifier
62716, 2025-010A
Orbit
Decayed
Country
Flag of USUS
Related business
Manufacturer
Firefly
Mission
Decayed Commercial Planetary
Bus & Motor
BLUE GHOST, Unknown motor
Mass
~1,500 kg wet, 469 kg dry
Launch date (UTC)
2025-01-15 (8 months ago)
Launch vehicle
FALCON 9
Launch site
Air Force Eastern Test Range (AFETR)
Object type
Payload
Rocket body
Debris
Shape & HBR
Box + 4 Leg, 1.8 m
Radar Cross Section
13.125 m²

Expand to show TLE details & history
Last TLE update: 8 months ago

TLE from 8 months ago
0 BLUE GHOST
1 62716U 25010A   25015.29938097 -.00032000  26295-4  00000-0 0  9994
2 62716  35.0400 359.0739 9608400 346.4200   0.0135  0.12641706    04
Epoch: 2025-01-15T07:11Z
TLE epoch observation values (Epoch: 2025-01-15T07:11:06.515Z)
Latitude
27.93165°
Longitude
-94.20469°
Altitude
41,607.797 km
Speed
3.773 km/s
True Right ascension
08h 34m 15s
True Declination
27° 54' 38"
Sunlit
Object was in daylight at epoch
Visualization orbit readout
Latitude
Unknown
Longitude
Unknown
Altitude
Unknown
Speed
Unknown
Apparent Right ascension
Unknown
Apparent Declination
Unknown
Sunlit
N/A
Visualization observer readout
Local Sidereal Time
13:30:01
Azimuth
Unknown
Elevation
Unknown
Doppler factor
Unknown
Orbital elements
Apogee altitude
322,465.897 km
Perigee altitude
189.218 km
Semi-major axis
167,705.694 km
Eccentricity
0.96084
Inclination
35.04°
RAAN
359.0739°
Arg. of periapsis
346.42°
True anomaly
2.42466°
Mean anomaly
0.0135°
Eccentric anomaly
0.3427°
Mean motion
0.0316 °/min
Orbital period
11,391.5 mins
BSTAR
0
Loading maneuver chart data...
Computing Atmospheric mass density...
Loading historical data...
Loading historical data...
Loading historical data...
Loading historical data...
Loading historical data...
Loading historical data...
Loading historical data...
Other satellites on launch #10 in the year 2025 (2025-01-15 UTC)

Documentation

Showing up to 5 results
|